This is the latest recevied weather packets stored in our database for station/object LY3FF-10. If no packets are shown the sender has not sent any weather packets the latest 10 day(s).
| Time | Temp. | Humidity | Pressure | Rain* | Wind** | Luminosity | Snow |
|---|---|---|---|---|---|---|---|
| 1787821384 | 20° C | 65% | 1006.3 hPa | - | - | - | - |
| 1787820603 | 21.67° C | 66% | 1006.2 hPa | - | - | - | - |
| 1787819786 | 18.89° C | 67% | 1006.3 hPa | - | - | - | - |
| 1787818894 | 20.56° C | 68% | 1006.2 hPa | - | - | - | - |
| 1787818054 | 18.33° C | 68% | 1006.2 hPa | - | - | - | - |
| 1787817180 | 17.78° C | 71% | 1006.4 hPa | - | - | - | - |
| 1787816375 | 17.78° C | 73% | 1006.3 hPa | - | - | - | - |
| 1787815620 | 18.33° C | 74% | 1006.3 hPa | - | - | - | - |
| 1787814880 | 16.67° C | 75% | 1006.2 hPa | - | - | - | - |
| 1787814120 | 16.67° C | 77% | 1006.2 hPa | - | - | - | - |
| 1787813260 | 16.11° C | 78% | 1006.3 hPa | - | - | - | - |
| 1787812480 | 15.56° C | 78% | 1006.1 hPa | - | - | - | - |
| 1787811760 | 15.56° C | 79% | 1006.1 hPa | - | - | - | - |
| 1787810973 | 15° C | 79% | 1006 hPa | - | - | - | - |
| 1787810115 | 14.44° C | 80% | 1006.1 hPa | - | - | - | - |
| 1787809320 | 13.89° C | 81% | 1005.9 hPa | - | - | - | - |
| 1787808594 | 13.89° C | 81% | 1006 hPa | - | - | - | - |
| 1787807839 | 13.33° C | 82% | 1005.9 hPa | - | - | - | - |
| 1787807085 | 13.33° C | 82% | 1006 hPa | - | - | - | - |
| 1787806364 | 12.78° C | 82% | 1006 hPa | - | - | - | - |
| 1787805575 | 12.78° C | 82% | 1006 hPa | - | - | - | - |
| 1787804684 | 12.22° C | 83% | 1006 hPa | - | - | - | - |
| 1787803875 | 12.22° C | 83% | 1005.9 hPa | - | - | - | - |
| 1787803150 | 11.67° C | 84% | 1005.9 hPa | - | - | - | - |
| 1787802260 | 11.67° C | 84% | 1005.7 hPa | - | - | - | - |
* Rain since midnight (hover to see other rain measurements)
** Current wind speed in m/s (hover to see current wind gust speed)